Weather History for Hearne, TX

Change the Weather History Date:

Wednesday, September 18, 2013

  Actual Average (KCLL) Record (KCLL)
Temperature  
Mean Temperature 83 °F 79 °F  
Max Temperature 97 °F 90 °F 103 °F (1927)
Min Temperature 70 °F 69 °F 51 °F (1981)
Degree Days  
Heating Degree Days 0 0  
Month to date heating degree days 0  
Since 1 July heating degree days 0  
Cooling Degree Days 18 14  
Month to date cooling degree days 301  
Year to date cooling degree days 2647  
Growing Degree Days 33 (Base 50)    
Moisture  
Dew Point 66 °F    
Average Humidity 59    
Maximum Humidity 88    
Minimum Humidity 32    
Precipitation  
Precipitation 0.00 in 0.10 in 2.03 in (2006)
Month to date precipitation 1.96  
Year to date precipitation 27.48  
Sea Level Pressure  
Sea Level Pressure 29.97 in    
Wind  
Wind Speed 3 mph (SE)    
Max Wind Speed 14 mph    
Max Gust Speed 20 mph    
Visibility 10 miles    
Events      
T = Trace of Precipitation, MM = Missing Value Source: NWS Daily Summary

Daily Weather History Graph

Daily Weather History Graph

Search for Another Location

Airport:

Trip Planner

Search our weather history database for the weather conditions in past years. The results will help you decide how hot, cold, wet, or windy it might be!

Date:

Astronomy

Sep. 18, 2013 Rise Set
Actual Time 7:12 AM CDT 7:27 PM CDT
Civil Twilight 6:48 AM CDT 7:51 PM CDT
Nautical Twilight 6:20 AM CDT 8:20 PM CDT
Astronomical Twilight 5:51 AM CDT 8:48 PM CDT
Moon 6:52 PM CDT (9/18) 6:17 AM CDT (9/18)
Length of Visible Light 13h 03m
Length of Day
12h 15m
Waxing Gibbous, 99% of the Moon is Illuminated
Sep 18
Waxing Gibbous
Sep 19
Full
Sep 26
Last Quarter
Oct 4
New
Oct 11
First Quarter

Hourly Weather History & Observations

Time (CDT) Temp. Heat Index Dew Point Humidity Pressure Visibility Wind Dir Wind Speed Gust Speed Precip Events Conditions
12:15 AM 78.6 °F - 65.7 °F 64% 30.01 in 10.0 mi Calm Calm - N/A   Clear
12:35 AM 77.9 °F - 65.7 °F 66% 30.01 in 10.0 mi Calm Calm - N/A   Clear
12:55 AM 75.7 °F - 66.2 °F 72% 30.01 in 10.0 mi Calm Calm - N/A   Clear
1:15 AM 75.4 °F - 66.2 °F 73% 30.01 in 10.0 mi Calm Calm - N/A   Clear
1:35 AM 77.2 °F - 66.2 °F 69% 30.01 in 10.0 mi Calm Calm - N/A   Clear
1:55 AM 76.1 °F - 66.0 °F 71% 30.01 in 10.0 mi Calm Calm - N/A   Clear
2:15 AM 74.8 °F - 66.2 °F 74% 30.01 in 10.0 mi Calm Calm - N/A   Clear
2:35 AM 74.5 °F - 66.2 °F 75% 30.00 in 10.0 mi Calm Calm - N/A   Clear
2:55 AM 74.3 °F - 66.2 °F 76% 30.00 in 10.0 mi Calm Calm - N/A   Clear
3:15 AM 74.8 °F - 66.2 °F 74% 30.00 in 10.0 mi Calm Calm - N/A   Clear
3:35 AM 74.3 °F - 66.2 °F 76% 29.99 in 10.0 mi Calm Calm - N/A   Clear
3:55 AM 74.3 °F - 66.4 °F 76% 29.99 in 10.0 mi Calm Calm - N/A   Clear
4:15 AM 73.0 °F - 66.2 °F 79% 29.99 in 10.0 mi Calm Calm - N/A   Clear
4:35 AM 72.0 °F - 66.2 °F 82% 29.98 in 10.0 mi East 3.5 mph - N/A   Clear
4:55 AM 72.5 °F - 66.7 °F 82% 29.98 in 10.0 mi Calm Calm - N/A   Clear
5:15 AM 72.3 °F - 66.4 °F 82% 29.98 in 10.0 mi Calm Calm - N/A   Clear
5:35 AM 71.2 °F - 66.2 °F 84% 29.98 in 10.0 mi Calm Calm - N/A   Clear
5:55 AM 71.6 °F - 66.2 °F 83% 29.99 in 10.0 mi Calm Calm - N/A   Clear
6:15 AM 71.1 °F - 66.6 °F 86% 29.99 in 10.0 mi Calm Calm - N/A   Clear
6:35 AM 71.6 °F - 67.1 °F 86% 29.98 in 10.0 mi ENE 3.5 mph - N/A   Clear
6:55 AM 72.0 °F - 67.5 °F 86% 29.99 in 10.0 mi Calm Calm - N/A   Clear
7:15 AM 70.9 °F - 67.1 °F 88% 29.99 in 10.0 mi Calm Calm - N/A   Clear
7:35 AM 70.7 °F - 67.1 °F 88% 30.00 in 10.0 mi Calm Calm - N/A   Clear
7:55 AM 72.9 °F - 68.9 °F 87% 30.01 in 10.0 mi Calm Calm - N/A   Clear
8:15 AM 75.6 °F - 70.0 °F 83% 30.01 in 10.0 mi Calm Calm - N/A   Clear
8:35 AM 78.3 °F - 71.2 °F 79% 30.02 in 10.0 mi Calm Calm - N/A   Clear
8:55 AM 78.8 °F - 72.1 °F 80% 30.03 in 10.0 mi SE 3.5 mph - N/A   Clear
9:15 AM 80.8 °F 85.4 °F 72.9 °F 77% 30.03 in 10.0 mi SE 3.5 mph - N/A   Clear
9:35 AM 81.5 °F 86.3 °F 72.5 °F 74% 30.03 in 10.0 mi SE 4.6 mph - N/A   Clear
9:55 AM 82.6 °F 87.8 °F 72.3 °F 71% 30.03 in 10.0 mi East 4.6 mph - N/A   Clear
10:15 AM 84.6 °F 89.4 °F 70.7 °F 63% 30.03 in 10.0 mi East 5.8 mph - N/A   Clear
10:35 AM 86.9 °F 91.3 °F 69.3 °F 56% 30.03 in 10.0 mi SE 6.9 mph - N/A   Clear
10:55 AM 87.6 °F 92.3 °F 69.8 °F 55% 30.03 in 10.0 mi ESE 5.8 mph - N/A   Scattered Clouds
11:15 AM 88.0 °F 92.1 °F 69.1 °F 53% 30.02 in 10.0 mi SSE 6.9 mph 10.4 mph N/A   Scattered Clouds
11:35 AM 88.2 °F 92.5 °F 68.9 °F 53% 30.02 in 10.0 mi SSE 10.4 mph - N/A   Scattered Clouds
11:55 AM 90.7 °F 94.1 °F 67.1 °F 46% 30.01 in 10.0 mi South 8.1 mph 16.1 mph N/A   Scattered Clouds
12:15 PM 90.3 °F 93.4 °F 66.7 °F 46% 30.00 in 10.0 mi South 9.2 mph 16.1 mph N/A   Clear
12:35 PM 89.8 °F 92.9 °F 67.1 °F 47% 29.99 in 10.0 mi SSE 8.1 mph - N/A   Clear
12:55 PM 89.6 °F 92.6 °F 66.7 °F 47% 29.99 in 10.0 mi SE 6.9 mph - N/A   Clear
1:15 PM 93.2 °F 96.2 °F 66.0 °F 41% 29.98 in 10.0 mi SSE 9.2 mph - N/A   Scattered Clouds
1:35 PM 92.5 °F 94.1 °F 64.4 °F 39% 29.97 in 10.0 mi SSE 4.6 mph - N/A   Scattered Clouds
1:55 PM 94.8 °F 95.8 °F 62.8 °F 34% 29.96 in 10.0 mi SE 11.5 mph 17.3 mph N/A   Mostly Cloudy
2:15 PM 94.3 °F 95.3 °F 62.8 °F 35% 29.95 in 10.0 mi SSE 9.2 mph - N/A   Scattered Clouds
2:35 PM 95.2 °F 96.8 °F 63.5 °F 35% 29.93 in 10.0 mi SE 10.4 mph - N/A   Scattered Clouds
2:55 PM 95.4 °F 97.6 °F 64.2 °F 36% 29.93 in 10.0 mi ESE 6.9 mph 16.1 mph N/A   Scattered Clouds
3:15 PM 94.3 °F 95.8 °F 63.5 °F 36% 29.92 in 10.0 mi SE 8.1 mph - N/A   Scattered Clouds
3:35 PM 95.7 °F 97.2 °F 62.8 °F 34% 29.91 in 10.0 mi ENE 3.5 mph - N/A   Mostly Cloudy
3:55 PM 95.5 °F 96.5 °F 62.4 °F 33% 29.90 in 10.0 mi SE 6.9 mph - N/A   Scattered Clouds
4:15 PM 96.1 °F 96.9 °F 62.1 °F 32% 29.90 in 10.0 mi SE 6.9 mph - N/A   Scattered Clouds
4:35 PM 95.2 °F 95.9 °F 62.1 °F 33% 29.89 in 10.0 mi SSE 11.5 mph 18.4 mph N/A   Scattered Clouds
4:55 PM 93.7 °F 94.5 °F 61.9 °F 35% 29.89 in 10.0 mi SSE 10.4 mph - N/A   Scattered Clouds
5:15 PM 95.0 °F 95.6 °F 62.1 °F 33% 29.89 in 10.0 mi SE 13.8 mph 19.6 mph N/A   Clear
5:35 PM 95.9 °F 97.0 °F 62.2 °F 33% 29.88 in 10.0 mi SE 9.2 mph - N/A   Mostly Cloudy
5:55 PM 95.0 °F 95.6 °F 61.9 °F 33% 29.88 in 10.0 mi SE 9.2 mph - N/A   Scattered Clouds
6:15 PM 94.5 °F 94.8 °F 61.3 °F 33% 29.88 in 10.0 mi SSE 6.9 mph - N/A   Clear
6:35 PM 93.7 °F 93.7 °F 61.0 °F 33% 29.88 in 10.0 mi SE 10.4 mph - N/A   Clear
6:55 PM 92.5 °F 91.9 °F 59.9 °F 33% 29.88 in 10.0 mi SE 8.1 mph - N/A   Clear
7:15 PM 90.9 °F 90.6 °F 60.8 °F 36% 29.88 in 10.0 mi SE 4.6 mph - N/A   Clear
7:35 PM 89.8 °F 89.7 °F 61.3 °F 38% 29.88 in 10.0 mi ESE 3.5 mph - N/A   Clear
7:55 PM 88.9 °F 90.0 °F 63.9 °F 43% 29.89 in 10.0 mi SE 10.4 mph - N/A   Scattered Clouds
8:15 PM 88.2 °F 90.9 °F 66.9 °F 49% 29.90 in 10.0 mi SE 10.4 mph 16.1 mph N/A   Mostly Cloudy
8:35 PM 86.9 °F 90.3 °F 68.0 °F 53% 29.91 in 10.0 mi SE 9.2 mph - N/A   Scattered Clouds
8:55 PM 86.2 °F 89.7 °F 68.4 °F 55% 29.92 in 10.0 mi ESE 6.9 mph - N/A   Clear
9:15 PM 85.5 °F 88.8 °F 68.2 °F 56% 29.93 in 10.0 mi SE 6.9 mph - N/A   Scattered Clouds
9:35 PM 85.1 °F 88.5 °F 68.2 °F 57% 29.94 in 10.0 mi SE 5.8 mph - N/A   Scattered Clouds
9:55 PM 84.2 °F 87.3 °F 68.0 °F 58% 29.95 in 10.0 mi SE 6.9 mph - N/A   Clear
10:15 PM 83.7 °F 86.7 °F 67.8 °F 59% 29.95 in 10.0 mi SE 5.8 mph - N/A   Clear
10:35 PM 83.3 °F 85.9 °F 67.1 °F 58% 29.96 in 10.0 mi SE 6.9 mph - N/A   Clear
10:55 PM 82.8 °F 85.3 °F 67.1 °F 59% 29.96 in 10.0 mi SE 5.8 mph - N/A   Clear
11:15 PM 82.0 °F 84.5 °F 66.9 °F 60% 29.96 in 10.0 mi SE 4.6 mph - N/A   Clear
11:35 PM 81.5 °F 83.7 °F 66.6 °F 60% 29.96 in 10.0 mi Calm Calm - N/A   Clear
11:55 PM 81.0 °F 83.4 °F 67.1 °F 63% 29.96 in 10.0 mi Calm Calm - N/A   Clear